Location: Brachstadt
(48.6975°N, 10.6755°E)
Time: 11:46:47
(UTC+00:00)

Envisat - Pass Details

Date: 03 December 2022
Orbit: 763 x 765 km, 98.2° (Epoch: 06 February)

Event Time Altitude Azimuth Distance (km) Brightness Sun altitude
Rises 04:18:44 0° 9° (N) 3,246 6.3 -24.2°
Reaches altitude 10° 04:21:08 10° 3° (N) 2,315 5.4 -23.8°
Enters shadow 04:23:43 28° 346° (NNW) 1,420 4.2 -23.4°
